,,,PA_Meas_PMT16A,,PR_Meas_QMR101_102,,RH_Meas_QMH101,,SR_Meas_QMS101,,TA_Meas_QMH101,,GenWind,,GenWind,
date,time,status,PA,status,PR,status,RH,status,SR,status,TA,status,DirAvg,status,SpdAvg,
2009-07-22, 00:00:05,VALID,1002.42,VALID,0,VALID,91.502,VALID,0,VALID,22.8835,VALID,14,VALID,1.1418,
2009-07-22, 00:01:05,VALID,1002.44,VALID,0,VALID,91.7157,VALID,0,VALID,22.8445,VALID,16,VALID,1.00391,
2009-07-22, 00:02:05,VALID,1002.45,VALID,0,VALID,91.8606,VALID,0,VALID,22.825,VALID,17,VALID,0.821484,
2009-07-22, 00:03:05,VALID,1002.45,VALID,0,VALID,91.9827,VALID,0,VALID,22.8055,VALID,27,VALID,0.980469,
2009-07-22, 00:04:05,VALID,1002.46,VALID,0,VALID,91.9827,VALID,0,VALID,22.8037,VALID,48,VALID,1.28242,
2009-07-22, 00:05:05,VALID,1002.46,VALID,0,VALID,92.1506,VALID,0,VALID,22.825,VALID,52,VALID,1.2793,
2009-07-22, 00:06:05,VALID,1002.47,VALID,0,VALID,92.12,VALID,0,VALID,22.864,VALID,55,VALID,1.14609,
2009-07-22, 00:07:05,VALID,1002.46,VALID,0,VALID,92.0209,VALID,0,VALID,22.864,VALID,55,VALID,1.04414,
2009-07-22, 00:08:05,VALID,1002.42,VALID,0,VALID,91.9674,VALID,0,VALID,22.8835,VALID,61,VALID,0.839063,
2009-07-22, 00:09:05,VALID,1002.43,VALID,0,VALID,91.9903,VALID,0,VALID,22.8623,VALID,60,VALID,0.882813,
2009-07-22, 00:10:05,VALID,1002.43,VALID,0,VALID,91.6928,VALID,0,VALID,22.864,VALID,55,VALID,0.75,
2009-07-22, 00:11:05,VALID,1002.39,VALID,0,VALID,91.6012,VALID,0,VALID,22.864,VALID,55,VALID,0.571484,
2009-07-22, 00:12:05,VALID,1002.39,VALID,0,VALID,91.4868,VALID,0,VALID,22.8232,VALID,55,VALID,0.598047,
2009-07-22, 00:13:05,VALID,1002.35,VALID,0,VALID,91.2808,VALID,0,VALID,22.8445,VALID,56,VALID,0.349609,
2009-07-22, 00:14:05,VALID,1002.35,VALID,0,VALID,91.2731,VALID,0,VALID,22.825,VALID,56,VALID,0.256641,
2009-07-22, 00:15:05,VALID,1002.34,VALID,0,VALID,91.4105,VALID,0,VALID,22.7842,VALID,56,VALID,0.244531,
2009-07-22, 00:16:05,VALID,1002.33,VALID,0,VALID,91.5478,VALID,0,VALID,22.8055,VALID,56,VALID,0.285547,
2009-07-22, 00:17:05,VALID,1002.28,VALID,0,VALID,91.647,VALID,0,VALID,22.786,VALID,56,VALID,0.280078,
2009-07-22, 00:18:05,VALID,1002.3,VALID,0,VALID,91.5783,VALID,0,VALID,22.7664,VALID,56,VALID,0.138281,
2009-07-22, 00:19:05,VALID,1002.27,VALID,0,VALID,91.4181,VALID,0,VALID,22.7469,VALID,56,VALID,0.0601562,
2009-07-22, 00:20:05,VALID,1002.24,VALID,0,VALID,91.5783,VALID,0,VALID,22.7079,VALID,54,VALID,0.459766,
2009-07-22, 00:21:05,VALID,1002.23,VALID,0,VALID,91.4486,VALID,0,VALID,22.6867,VALID,34,VALID,0.680078,
2009-07-22, 00:22:05,VALID,1002.17,VALID,0,VALID,91.5402,VALID,0,VALID,22.6867,VALID,30,VALID,0.886719,
2009-07-22, 00:23:05,VALID,1002.16,VALID,0,VALID,91.441,VALID,0,VALID,22.7079,VALID,24,VALID,1.0418,
2009-07-22, 00:24:05,VALID,1002.13,VALID,0,VALID,91.1587,VALID,0,VALID,22.6672,VALID,24,VALID,1.05625,
2009-07-22, 00:25:05,VALID,1002.1,VALID,0,VALID,90.9298,VALID,0,VALID,22.6494,VALID,24,VALID,1.12656,
2009-07-22, 00:26:05,VALID,1002.1,VALID,0,VALID,91.0595,VALID,0,VALID,22.6299,VALID,24,VALID,1.24219,
2009-07-22, 00:27:05,VALID,1002.08,VALID,0,VALID,91.2274,VALID,0,VALID,22.5501,VALID,24,VALID,1.22773,
2009-07-22, 00:28:05,VALID,1002.04,VALID,0,VALID,91.5936,VALID,0,VALID,22.5519,VALID,24,VALID,1.13906,
2009-07-22, 00:29:05,VALID,1002.03,VALID,0,VALID,91.6241,VALID,0,VALID,22.5714,VALID,24,VALID,1.09844,
2009-07-22, 00:30:05,VALID,1002.01,VALID,0,VALID,91.647,VALID,0,VALID,22.5696,VALID,24,VALID,0.963281,
2009-07-22, 00:31:05,VALID,1001.98,VALID,0,VALID,91.8988,VALID,0,VALID,22.5909,VALID,24,VALID,0.949219,
2009-07-22, 00:32:05,VALID,1001.99,VALID,0,VALID,91.6699,VALID,0,VALID,22.5892,VALID,26,VALID,1.02891,
2009-07-22, 00:33:05,VALID,1001.98,VALID,0,VALID,91.3723,VALID,0,VALID,22.5909,VALID,29,VALID,0.978516,
2009-07-22, 00:34:05,VALID,1001.97,VALID,0,VALID,91.1892,VALID,0,VALID,22.5519,VALID,28,VALID,0.876562,
2009-07-22, 00:35:05,VALID,1001.96,VALID,0,VALID,91.1053,VALID,0,VALID,22.5323,VALID,28,VALID,0.780469,
2009-07-22, 00:36:05,VALID,1001.95,VALID,0,VALID,91.1282,VALID,0,VALID,22.4738,VALID,28,VALID,0.678906,
2009-07-22, 00:37:05,VALID,1001.93,VALID,0,VALID,91.3494,VALID,0,VALID,22.4543,VALID,28,VALID,0.656641,
2009-07-22, 00:38:05,VALID,1001.92,VALID,0,VALID,91.6165,VALID,0,VALID,22.4348,VALID,28,VALID,0.687109,
2009-07-22, 00:39:05,VALID,1001.94,VALID,0,VALID,91.8911,VALID,0,VALID,22.4543,VALID,28,VALID,0.798828,
2009-07-22, 00:40:05,VALID,1001.91,VALID,0,VALID,92.1811,VALID,0,VALID,22.4331,VALID,28,VALID,0.985547,
2009-07-22, 00:41:04,VALID,1001.88,VALID,0,VALID,92.1124,VALID,0,VALID,22.4755,VALID,28,VALID,0.971875,
2009-07-22, 00:42:04,VALID,1001.92,VALID,0,VALID,92.1658,VALID,0,VALID,22.4738,VALID,28,VALID,0.814453,
2009-07-22, 00:43:04,VALID,1001.89,VALID,0,VALID,92.2879,VALID,0,VALID,22.4933,VALID,28,VALID,0.9875,
2009-07-22, 00:44:04,VALID,1001.89,VALID,0,VALID,92.2192,VALID,0,VALID,22.4933,VALID,28,VALID,1.12227,
2009-07-22, 00:45:04,VALID,1001.88,VALID,0,VALID,92.0285,VALID,0,VALID,22.4738,VALID,28,VALID,1.08281,
2009-07-22, 00:46:04,VALID,1001.89,VALID,0,VALID,91.9293,VALID,0,VALID,22.4348,VALID,29,VALID,0.988281,
2009-07-22, 00:47:04,VALID,1001.86,VALID,0,VALID,92.2116,VALID,0,VALID,22.4153,VALID,29,VALID,0.960156,
2009-07-22, 00:48:04,VALID,1001.87,VALID,0,VALID,92.3642,VALID,0,VALID,22.4348,VALID,29,VALID,0.777734,
2009-07-22, 00:49:04,VALID,1001.85,VALID,0,VALID,92.4634,VALID,0,VALID,22.4543,VALID,29,VALID,0.854688,
2009-07-22, 00:50:04,VALID,1001.85,VALID,0,VALID,92.3718,VALID,0,VALID,22.4543,VALID,28,VALID,1.02188,
2009-07-22, 00:51:04,VALID,1001.85,VALID,0,VALID,92.2421,VALID,0,VALID,22.4543,VALID,28,VALID,0.975391,
2009-07-22, 00:52:04,VALID,1001.84,VALID,0,VALID,92.1353,VALID,0,VALID,22.4543,VALID,28,VALID,0.904297,
2009-07-22, 00:53:04,VALID,1001.83,VALID,0,VALID,92.0285,VALID,0,VALID,22.4543,VALID,28,VALID,0.836328,
2009-07-22, 00:54:04,VALID,1001.79,VALID,0,VALID,91.9369,VALID,0,VALID,22.4738,VALID,28,VALID,0.940234,
2009-07-22, 00:55:04,VALID,1001.8,VALID,0,VALID,91.8377,VALID,0,VALID,22.4526,VALID,28,VALID,1.06836,
2009-07-22, 00:56:04,VALID,1001.79,VALID,0,VALID,91.7996,VALID,0,VALID,22.4738,VALID,28,VALID,1.02188,
2009-07-22, 00:57:04,VALID,1001.74,VALID,0,VALID,92.2268,VALID,0,VALID,22.5128,VALID,28,VALID,1.08164,
2009-07-22, 00:58:04,VALID,1001.71,VALID,0,VALID,92.1811,VALID,0,VALID,22.5519,VALID,28,VALID,1.05156,
2009-07-22, 00:59:04,VALID,1001.7,VALID,0,VALID,91.7996,VALID,0,VALID,22.5323,VALID,28,VALID,1.00547,
2009-07-22, 01:00:04,VALID,1001.68,VALID,0,VALID,91.296,VALID,0,VALID,22.4933,VALID,28,VALID,0.885938,
2009-07-22, 01:01:04,VALID,1001.66,VALID,0,VALID,91.296,VALID,0,VALID,22.4153,VALID,27,VALID,0.885547,
2009-07-22, 01:02:04,VALID,1001.66,VALID,0,VALID,91.5402,VALID,0,VALID,22.3746,VALID,24,VALID,0.823438,
2009-07-22, 01:03:04,VALID,1001.67,VALID,0,VALID,91.5249,VALID,0,VALID,22.3763,VALID,13,VALID,0.851953,
2009-07-22, 01:04:04,VALID,1001.65,VALID,0,VALID,91.4944,VALID,0,VALID,22.3568,VALID,11,VALID,0.621484,
2009-07-22, 01:05:04,VALID,1001.66,VALID,0,VALID,91.5402,VALID,0,VALID,22.3373,VALID,11,VALID,0.584375,
2009-07-22, 01:06:04,VALID,1001.67,VALID,0,VALID,91.4486,VALID,0,VALID,22.2983,VALID,11,VALID,0.642969,
2009-07-22, 01:07:04,VALID,1001.66,VALID,0,VALID,91.3571,VALID,0,VALID,22.2592,VALID,32,VALID,0.661328,
2009-07-22, 01:08:04,VALID,1001.67,VALID,0,VALID,91.5097,VALID,0,VALID,22.199,VALID,33,VALID,0.810938,
2009-07-22, 01:09:04,VALID,1001.67,VALID,0,VALID,91.7385,VALID,0,VALID,22.1795,VALID,33,VALID,0.817578,
2009-07-22, 01:10:04,VALID,1001.72,VALID,0,VALID,91.6699,VALID,0,VALID,22.1812,VALID,33,VALID,0.639844,
2009-07-22, 01:11:04,VALID,1001.67,VALID,0,VALID,91.647,VALID,0,VALID,22.1617,VALID,33,VALID,0.723437,
2009-07-22, 01:12:04,VALID,1001.66,VALID,0,VALID,91.708,VALID,0,VALID,22.1422,VALID,33,VALID,0.898438,
2009-07-22, 01:13:04,VALID,1001.64,VALID,0,VALID,91.9674,VALID,0,VALID,22.1422,VALID,32,VALID,0.848437,
2009-07-22, 01:14:04,VALID,1001.64,VALID,0,VALID,91.998,VALID,0,VALID,22.1405,VALID,14,VALID,0.923047,
2009-07-22, 01:15:04,VALID,1001.62,VALID,0,VALID,92.0285,VALID,0,VALID,22.1812,VALID,14,VALID,0.887891,
2009-07-22, 01:16:04,VALID,1001.61,VALID,0,VALID,91.7538,VALID,0,VALID,22.2007,VALID,14,VALID,0.882031,
2009-07-22, 01:17:04,VALID,1001.62,VALID,0,VALID,91.7157,VALID,0,VALID,22.2202,VALID,13,VALID,0.720703,
2009-07-22, 01:18:04,VALID,1001.6,VALID,0,VALID,91.6775,VALID,0,VALID,22.2202,VALID,13,VALID,0.607031,
2009-07-22, 01:19:04,VALID,1001.63,VALID,0,VALID,91.6623,VALID,0,VALID,22.2186,VALID,13,VALID,0.345703,
2009-07-22, 01:20:04,VALID,1001.58,VALID,0,VALID,91.647,VALID,0,VALID,22.2397,VALID,13,VALID,0.600391,
2009-07-22, 01:21:04,VALID,1001.57,VALID,0,VALID,91.7385,VALID,0,VALID,22.2202,VALID,16,VALID,0.786719,
2009-07-22, 01:22:04,VALID,1001.56,VALID,0,VALID,91.6699,VALID,0,VALID,22.2202,VALID,17,VALID,0.823047,
2009-07-22, 01:23:04,VALID,1001.57,VALID,0,VALID,91.6165,VALID,0,VALID,22.1812,VALID,17,VALID,0.675391,
2009-07-22, 01:24:04,VALID,1001.52,VALID,0,VALID,91.7233,VALID,0,VALID,22.1617,VALID,18,VALID,0.608203,
2009-07-22, 01:25:04,VALID,1001.52,VALID,0,VALID,91.9445,VALID,0,VALID,22.1422,VALID,18,VALID,0.562891,
2009-07-22, 01:26:04,VALID,1001.47,VALID,0,VALID,92.0209,VALID,0,VALID,22.121,VALID,27,VALID,0.6375,
2009-07-22, 01:27:04,VALID,1001.44,VALID,0,VALID,92.0895,VALID,0,VALID,22.1422,VALID,43,VALID,0.73125,
2009-07-22, 01:28:04,VALID,1001.39,VALID,0,VALID,92.059,VALID,0,VALID,22.1422,VALID,69,VALID,0.770703,
2009-07-22, 01:29:04,VALID,1001.39,VALID,0,VALID,92.1048,VALID,0,VALID,22.121,VALID,70,VALID,0.786328,
2009-07-22, 01:30:04,VALID,1001.35,VALID,0,VALID,92.0132,VALID,0,VALID,22.1405,VALID,83,VALID,0.764844,
2009-07-22, 01:31:04,VALID,1001.37,VALID,0,VALID,92.2497,VALID,0.112286,VALID,22.1405,VALID,104,VALID,0.771875,
2009-07-22, 01:32:04,VALID,1001.36,VALID,0,VALID,92.4634,VALID,0,VALID,22.1795,VALID,104,VALID,0.811719,
2009-07-22, 01:33:04,VALID,1001.38,VALID,0,VALID,92.5091,VALID,0,VALID,22.2202,VALID,104,VALID,0.672656,
2009-07-22, 01:34:04,VALID,1001.42,VALID,0,VALID,92.3642,VALID,0,VALID,22.2381,VALID,111,VALID,0.678125,
2009-07-22, 01:35:04,VALID,1001.4,VALID,0,VALID,92.4557,VALID,0,VALID,22.2771,VALID,125,VALID,0.798047,
2009-07-22, 01:36:04,VALID,1001.43,VALID,0,VALID,92.5854,VALID,0,VALID,22.2966,VALID,130,VALID,0.905859,
2009-07-22, 01:37:04,VALID,1001.42,VALID,0,VALID,92.6007,VALID,0,VALID,22.3356,VALID,131,VALID,0.800391,
2009-07-22, 01:38:04,VALID,1001.44,VALID,0,VALID,92.6083,VALID,0,VALID,22.3551,VALID,131,VALID,0.679688,
2009-07-22, 01:39:04,VALID,1001.43,VALID,0,VALID,92.5397,VALID,0,VALID,22.3746,VALID,131,VALID,0.525781,
2009-07-22, 01:40:04,VALID,1001.42,VALID,0,VALID,92.4405,VALID,0,VALID,22.3941,VALID,131,VALID,0.354688,
2009-07-22, 01:41:04,VALID,1001.43,VALID,0,VALID,92.4481,VALID,0,VALID,22.3746,VALID,131,VALID,0.469531,
2009-07-22, 01:42:04,VALID,1001.43,VALID,0,VALID,92.3413,VALID,0,VALID,22.3551,VALID,131,VALID,0.587109,
2009-07-22, 01:43:04,VALID,1001.42,VALID,0,VALID,92.4252,VALID,0,VALID,22.3551,VALID,131,VALID,0.587891,
2009-07-22, 01:44:04,VALID,1001.41,VALID,0,VALID,92.471,VALID,0,VALID,22.3746,VALID,131,VALID,0.685156,
2009-07-22, 01:45:04,VALID,1001.38,VALID,0,VALID,92.4176,VALID,0,VALID,22.3746,VALID,131,VALID,0.671094,
2009-07-22, 01:46:04,VALID,1001.33,VALID,0,VALID,92.3337,VALID,0,VALID,22.3746,VALID,131,VALID,0.698438,
2009-07-22, 01:47:04,VALID,1001.31,VALID,0,VALID,92.2345,VALID,0.112286,VALID,22.3941,VALID,131,VALID,0.573047,
2009-07-22, 01:48:04,VALID,1001.27,VALID,0,VALID,92.1887,VALID,0,VALID,22.3941,VALID,131,VALID,0.667188,
2009-07-22, 01:49:04,VALID,1001.26,VALID,0,VALID,92.1506,VALID,0.112286,VALID,22.4136,VALID,131,VALID,0.542188,
2009-07-22, 01:50:04,VALID,1001.26,VALID,0,VALID,92.059,VALID,0.112286,VALID,22.4331,VALID,131,VALID,0.509375,
2009-07-22, 01:51:04,VALID,1001.27,VALID,0,VALID,92.0743,VALID,0,VALID,22.4331,VALID,131,VALID,0.640234,
2009-07-22, 01:52:04,VALID,1001.26,VALID,0,VALID,92.0514,VALID,0,VALID,22.4331,VALID,131,VALID,0.780469,
2009-07-22, 01:53:04,VALID,1001.26,VALID,0,VALID,92.0971,VALID,0.112286,VALID,22.4526,VALID,132,VALID,0.923828,
2009-07-22, 01:54:04,VALID,1001.23,VALID,0,VALID,92.0743,VALID,0,VALID,22.4916,VALID,133,VALID,0.727734,
2009-07-22, 01:55:04,VALID,1001.23,VALID,0,VALID,92.0666,VALID,0,VALID,22.4916,VALID,133,VALID,0.612891,
2009-07-22, 01:56:04,VALID,1001.22,VALID,0,VALID,92.0437,VALID,0,VALID,22.4916,VALID,133,VALID,0.614453,
2009-07-22, 01:57:04,VALID,1001.21,VALID,0,VALID,92.0514,VALID,0,VALID,22.4916,VALID,133,VALID,0.726172,
2009-07-22, 01:58:04,VALID,1001.17,VALID,0,VALID,92.0285,VALID,0,VALID,22.5111,VALID,133,VALID,0.543359,
2009-07-22, 01:59:04,VALID,1001.15,VALID,0,VALID,92.0437,VALID,0,VALID,22.4916,VALID,133,VALID,0.499609,
2009-07-22, 02:00:04,VALID,1001.15,VALID,0,VALID,92.059,VALID,0,VALID,22.4916,VALID,133,VALID,0.446094,
2009-07-22, 02:01:04,VALID,1001.13,VALID,0,VALID,92.0285,VALID,0,VALID,22.4916,VALID,133,VALID,0.257813,
2009-07-22, 02:02:04,VALID,1001.08,VALID,0,VALID,92.0437,VALID,0,VALID,22.4721,VALID,133,VALID,0.170703,
2009-07-22, 02:03:04,VALID,1001.07,VALID,0,VALID,92.0437,VALID,0,VALID,22.4331,VALID,133,VALID,0.21875,
2009-07-22, 02:04:04,VALID,1001.04,VALID,0,VALID,92.059,VALID,0,VALID,22.4331,VALID,133,VALID,0.231641,
2009-07-22, 02:05:04,VALID,1001.04,VALID,0,VALID,92.0819,VALID,0.112286,VALID,22.4136,VALID,133,VALID,0.131641,
2009-07-22, 02:06:04,VALID,1001.06,VALID,0,VALID,92.12,VALID,0,VALID,22.3941,VALID,133,VALID,0.06875,
2009-07-22, 02:07:04,VALID,1001.05,VALID,0,VALID,92.1048,VALID,0,VALID,22.3941,VALID,133,VALID,0,
2009-07-22, 02:08:04,VALID,1001.06,VALID,0,VALID,92.1811,VALID,0.112286,VALID,22.3746,VALID,133,VALID,0.0128906,
2009-07-22, 02:09:04,VALID,1001.01,VALID,0,VALID,92.3566,VALID,0,VALID,22.3746,VALID,133,VALID,0.324219,
2009-07-22, 02:10:04,VALID,1001.02,VALID,0,VALID,92.3489,VALID,0,VALID,22.3551,VALID,25,VALID,0.569922,
2009-07-22, 02:11:04,VALID,1001.01,VALID,0,VALID,92.4557,VALID,0,VALID,22.3356,VALID,25,VALID,0.455078,
2009-07-22, 02:12:04,VALID,1000.99,VALID,0,VALID,92.4252,VALID,0.112286,VALID,22.3356,VALID,25,VALID,0.304688,
2009-07-22, 02:13:04,VALID,1001.04,VALID,0,VALID,92.4863,VALID,0,VALID,22.3356,VALID,25,VALID,0.240234,
2009-07-22, 02:14:04,VALID,1001.01,VALID,0,VALID,92.5778,VALID,0,VALID,22.3356,VALID,25,VALID,0.247266,
2009-07-22, 02:15:04,VALID,1001.01,VALID,0,VALID,92.6236,VALID,0,VALID,22.3356,VALID,25,VALID,0.400391,
2009-07-22, 02:16:04,VALID,1001.01,VALID,0,VALID,92.6541,VALID,0,VALID,22.3551,VALID,25,VALID,0.391016,
2009-07-22, 02:17:04,VALID,1000.94,VALID,0,VALID,92.6388,VALID,0,VALID,22.3746,VALID,33,VALID,0.464453,
2009-07-22, 02:18:04,VALID,1000.94,VALID,0,VALID,92.6694,VALID,0,VALID,22.3941,VALID,33,VALID,0.417969,
2009-07-22, 02:19:04,VALID,1000.89,VALID,0,VALID,92.6083,VALID,0,VALID,22.4153,VALID,33,VALID,0.427344,
2009-07-22, 02:20:04,VALID,1000.88,VALID,0,VALID,92.3794,VALID,0,VALID,22.4136,VALID,33,VALID,0.238281,
2009-07-22, 02:21:04,VALID,1000.85,VALID,0,VALID,92.2879,VALID,0,VALID,22.3941,VALID,33,VALID,0.258203,
2009-07-22, 02:22:04,VALID,1000.81,VALID,0,VALID,91.8301,VALID,0,VALID,22.3551,VALID,32,VALID,0.435156,
2009-07-22, 02:23:04,VALID,1000.79,VALID,0,VALID,92.059,VALID,0,VALID,22.3161,VALID,32,VALID,0.589063,
2009-07-22, 02:24:04,VALID,1000.78,VALID,0,VALID,92.1429,VALID,0,VALID,22.3161,VALID,32,VALID,0.565234,
2009-07-22, 02:25:04,VALID,1000.76,VALID,0,VALID,92.1887,VALID,0,VALID,22.3161,VALID,32,VALID,0.553516,
2009-07-22, 02:26:04,VALID,1000.75,VALID,0,VALID,92.3337,VALID,0,VALID,22.3161,VALID,32,VALID,0.581641,
2009-07-22, 02:27:04,VALID,1000.73,VALID,0,VALID,92.3794,VALID,0,VALID,22.3356,VALID,32,VALID,0.542578,
2009-07-22, 02:28:04,VALID,1000.75,VALID,0,VALID,92.0209,VALID,0,VALID,22.3763,VALID,32,VALID,0.885156,
2009-07-22, 02:29:04,VALID,1000.7,VALID,0,VALID,91.5173,VALID,0,VALID,22.2966,VALID,20,VALID,1.18438,
2009-07-22, 02:30:04,VALID,1000.69,VALID,0,VALID,91.8377,VALID,0,VALID,22.2576,VALID,20,VALID,1.15586,
2009-07-22, 02:31:04,VALID,1000.68,VALID,0,VALID,91.8988,VALID,0,VALID,22.199,VALID,20,VALID,1.20313,
2009-07-22, 02:32:04,VALID,1000.66,VALID,0,VALID,91.9522,VALID,0,VALID,22.16,VALID,20,VALID,1.06758,
2009-07-22, 02:33:04,VALID,1000.65,VALID,0,VALID,92.059,VALID,0,VALID,22.1227,VALID,21,VALID,1.02578,
2009-07-22, 02:34:04,VALID,1000.62,VALID,0,VALID,92.4481,VALID,0,VALID,22.0625,VALID,27,VALID,0.999609,
2009-07-22, 02:35:04,VALID,1000.63,VALID,0,VALID,92.6465,VALID,0,VALID,22.0625,VALID,34,VALID,0.866797,
2009-07-22, 02:36:04,VALID,1000.59,VALID,0,VALID,92.6617,VALID,0,VALID,22.082,VALID,44,VALID,1.0168,
2009-07-22, 02:37:04,VALID,1000.59,VALID,0,VALID,92.8601,VALID,0,VALID,22.082,VALID,48,VALID,0.968359,
2009-07-22, 02:38:04,VALID,1000.59,VALID,0,VALID,92.8983,VALID,0,VALID,22.1015,VALID,49,VALID,0.845703,
2009-07-22, 02:39:04,VALID,1000.62,VALID,0,VALID,92.822,VALID,0,VALID,22.082,VALID,49,VALID,0.575,
2009-07-22, 02:40:04,VALID,1000.63,VALID,0,VALID,92.7609,VALID,0,VALID,22.0837,VALID,49,VALID,0.406641,
2009-07-22, 02:41:04,VALID,1000.62,VALID,0,VALID,92.7075,VALID,0,VALID,22.0447,VALID,49,VALID,0.149219,
2009-07-22, 02:42:04,VALID,1000.64,VALID,0,VALID,92.7075,VALID,0,VALID,22.0252,VALID,49,VALID,0.255859,
2009-07-22, 02:43:04,VALID,1000.6,VALID,0,VALID,92.8906,VALID,0,VALID,21.9845,VALID,41,VALID,0.55,
2009-07-22, 02:44:04,VALID,1000.61,VALID,0,VALID,93.15,VALID,0,VALID,22.004,VALID,41,VALID,0.562109,
2009-07-22, 02:45:04,VALID,1000.62,VALID,0,VALID,93.3484,VALID,0,VALID,22.0235,VALID,41,VALID,0.598437,
2009-07-22, 02:46:04,VALID,1000.63,VALID,0,VALID,93.3484,VALID,0,VALID,22.043,VALID,41,VALID,0.73125,
2009-07-22, 02:47:04,VALID,1000.59,VALID,0,VALID,93.2874,VALID,0,VALID,22.0235,VALID,40,VALID,0.708203,
2009-07-22, 02:48:04,VALID,1000.64,VALID,0,VALID,93.2034,VALID,0,VALID,22.0252,VALID,40,VALID,0.49375,
2009-07-22, 02:49:04,VALID,1000.63,VALID,0,VALID,93.028,VALID,0,VALID,21.9845,VALID,40,VALID,0.363672,
2009-07-22, 02:50:04,VALID,1000.66,VALID,0,VALID,93.0432,VALID,0,VALID,21.9667,VALID,40,VALID,0.312109,
2009-07-22, 02:51:04,VALID,1000.63,VALID,0,VALID,93.2263,VALID,0,VALID,21.9455,VALID,40,VALID,0.458594,
2009-07-22, 02:52:04,VALID,1000.62,VALID,0,VALID,93.501,VALID,0,VALID,21.9845,VALID,41,VALID,0.505469,
2009-07-22, 02:53:04,VALID,1000.59,VALID,0,VALID,93.707,VALID,0,VALID,22.0642,VALID,126,VALID,0.719141,
2009-07-22, 02:54:04,VALID,1000.56,VALID,0,VALID,93.7757,VALID,0,VALID,22.1015,VALID,131,VALID,0.491406,
2009-07-22, 02:55:04,VALID,1000.54,VALID,0,VALID,93.707,VALID,0,VALID,22.121,VALID,137,VALID,0.451953,
2009-07-22, 02:56:04,VALID,1000.51,VALID,0,VALID,93.768,VALID,0,VALID,22.16,VALID,137,VALID,0.41875,
2009-07-22, 02:57:04,VALID,1000.49,VALID,0,VALID,93.6917,VALID,0,VALID,22.1795,VALID,137,VALID,0.192578,
2009-07-22, 02:58:04,VALID,1000.47,VALID,0,VALID,93.646,VALID,0,VALID,22.199,VALID,137,VALID,0.110156,
2009-07-22, 02:59:04,VALID,1000.46,VALID,0,VALID,93.6002,VALID,0,VALID,22.199,VALID,137,VALID,0,
2009-07-22, 03:00:04,VALID,1000.46,VALID,0,VALID,93.5468,VALID,0,VALID,22.1795,VALID,137,VALID,0.154687,
2009-07-22, 03:01:04,VALID,1000.45,VALID,0,VALID,93.6002,VALID,0,VALID,22.199,VALID,137,VALID,0.723437,
2009-07-22, 03:02:04,VALID,1000.48,VALID,0,VALID,93.5163,VALID,0,VALID,22.2202,VALID,144,VALID,0.851172,
2009-07-22, 03:03:04,VALID,1000.45,VALID,0,VALID,93.501,VALID,0,VALID,22.2592,VALID,144,VALID,0.666797,
2009-07-22, 03:04:04,VALID,1000.42,VALID,0,VALID,93.4323,VALID,0,VALID,22.2983,VALID,144,VALID,0.691406,
2009-07-22, 03:05:04,VALID,1000.4,VALID,0,VALID,93.2721,VALID,0,VALID,22.3161,VALID,144,VALID,0.632813,
2009-07-22, 03:06:04,VALID,1000.4,VALID,0,VALID,93.1577,VALID,0,VALID,22.3746,VALID,144,VALID,0.457422,
2009-07-22, 03:07:04,VALID,1000.37,VALID,0,VALID,92.9364,VALID,0,VALID,22.4153,VALID,137,VALID,0.494922,
2009-07-22, 03:08:04,VALID,1000.43,VALID,0,VALID,92.6694,VALID,0,VALID,22.3746,VALID,136,VALID,0.536328,
2009-07-22, 03:09:04,VALID,1000.4,VALID,0,VALID,92.532,VALID,0,VALID,22.4153,VALID,136,VALID,0.566406,
2009-07-22, 03:10:04,VALID,1000.36,VALID,0,VALID,92.41,VALID,0,VALID,22.4136,VALID,136,VALID,0.582031,
2009-07-22, 03:11:04,VALID,1000.34,VALID,0,VALID,92.2345,VALID,0,VALID,22.4331,VALID,135,VALID,0.335938,
2009-07-22, 03:12:04,VALID,1000.32,VALID,0,VALID,92.0895,VALID,0,VALID,22.4136,VALID,135,VALID,0.328906,
2009-07-22, 03:13:04,VALID,1000.32,VALID,0,VALID,91.9827,VALID,0,VALID,22.4136,VALID,135,VALID,0.191797,
2009-07-22, 03:14:04,VALID,1000.29,VALID,0,VALID,91.8377,VALID,0,VALID,22.3746,VALID,134,VALID,0.433984,
2009-07-22, 03:15:04,VALID,1000.29,VALID,0,VALID,91.7614,VALID,0,VALID,22.3958,VALID,60,VALID,0.70625,
2009-07-22, 03:16:04,VALID,1000.28,VALID,0,VALID,91.7309,VALID,0,VALID,22.3551,VALID,102,VALID,0.948828,
2009-07-22, 03:17:04,VALID,1000.29,VALID,0,VALID,91.9445,VALID,0,VALID,22.3356,VALID,104,VALID,0.956641,
2009-07-22, 03:18:04,VALID,1000.28,VALID,0,VALID,92.0132,VALID,0,VALID,22.3356,VALID,104,VALID,0.8875,
2009-07-22, 03:19:04,VALID,1000.27,VALID,0,VALID,91.9598,VALID,0,VALID,22.3763,VALID,104,VALID,0.755469,
2009-07-22, 03:20:04,VALID,1000.29,VALID,0,VALID,91.853,VALID,0,VALID,22.3568,VALID,112,VALID,0.781641,
2009-07-22, 03:21:04,VALID,1000.25,VALID,0,VALID,91.6088,VALID,0,VALID,22.3551,VALID,118,VALID,0.751172,
2009-07-22, 03:22:04,VALID,1000.24,VALID,0,VALID,91.5326,VALID,0,VALID,22.3551,VALID,118,VALID,0.686719,
2009-07-22, 03:23:04,VALID,1000.24,VALID,0,VALID,91.4028,VALID,0,VALID,22.3551,VALID,117,VALID,0.406641,
2009-07-22, 03:24:04,VALID,1000.25,VALID,0,VALID,91.3189,VALID,0,VALID,22.3746,VALID,120,VALID,0.217969,
2009-07-22, 03:25:04,VALID,1000.25,VALID,0,VALID,91.296,VALID,0,VALID,22.3551,VALID,120,VALID,0,
2009-07-22, 03:26:04,VALID,1000.21,VALID,0,VALID,91.2884,VALID,0,VALID,22.3551,VALID,120,VALID,0.003125,
2009-07-22, 03:27:04,VALID,1000.22,VALID,0,VALID,91.174,VALID,0,VALID,22.3551,VALID,120,VALID,0.201562,
2009-07-22, 03:28:04,VALID,1000.18,VALID,0,VALID,90.9603,VALID,0,VALID,22.3763,VALID,120,VALID,0.326562,
2009-07-22, 03:29:04,VALID,1000.21,VALID,0,VALID,90.8001,VALID,0,VALID,22.3568,VALID,120,VALID,0.333203,
2009-07-22, 03:30:04,VALID,1000.17,VALID,0,VALID,90.7009,VALID,0,VALID,22.3161,VALID,120,VALID,0.320313,
2009-07-22, 03:31:04,VALID,1000.16,VALID,0,VALID,90.762,VALID,0,VALID,22.3161,VALID,120,VALID,0.288672,
2009-07-22, 03:32:04,VALID,1000.17,VALID,0,VALID,90.7696,VALID,0,VALID,22.3373,VALID,120,VALID,0.209375,
2009-07-22, 03:33:04,VALID,1000.16,VALID,0,VALID,90.9146,VALID,0,VALID,22.2983,VALID,120,VALID,0.223828,
2009-07-22, 03:34:04,VALID,1000.14,VALID,0,VALID,90.9985,VALID,0,VALID,22.2576,VALID,120,VALID,0.071875,
2009-07-22, 03:35:04,VALID,1000.18,VALID,0,VALID,91.0595,VALID,0,VALID,22.2592,VALID,120,VALID,0,
2009-07-22, 03:36:04,VALID,1000.17,VALID,0,VALID,91.1434,VALID,0,VALID,22.2397,VALID,120,VALID,0,
2009-07-22, 03:37:04,VALID,1000.16,VALID,0,VALID,91.2503,VALID,0,VALID,22.2186,VALID,120,VALID,0.2,
2009-07-22, 03:38:04,VALID,1000.18,VALID,0,VALID,91.2579,VALID,0,VALID,22.2202,VALID,120,VALID,0.374609,
2009-07-22, 03:39:04,VALID,1000.18,VALID,0,VALID,91.235,VALID,0,VALID,22.2202,VALID,120,VALID,0.489844,
2009-07-22, 03:40:04,VALID,1000.16,VALID,0,VALID,91.0366,VALID,0,VALID,22.2381,VALID,120,VALID,0.494141,
2009-07-22, 03:41:04,VALID,1000.18,VALID,0,VALID,90.7849,VALID,0,VALID,22.2983,VALID,120,VALID,0.564062,
2009-07-22, 03:42:04,VALID,1000.18,VALID,0,VALID,90.5788,VALID,0,VALID,22.3568,VALID,120,VALID,0.360156,
2009-07-22, 03:43:04,VALID,1000.18,VALID,0,VALID,90.411,VALID,0,VALID,22.3551,VALID,120,VALID,0.376563,
2009-07-22, 03:44:04,VALID,1000.16,VALID,0,VALID,90.3576,VALID,0,VALID,22.3161,VALID,120,VALID,0.495703,
2009-07-22, 03:45:04,VALID,1000.19,VALID,0,VALID,90.3805,VALID,0,VALID,22.3568,VALID,120,VALID,0.383203,